Regional Weather Roundup
Issued by NWS

Home | Current Version | Previous Version | Text Only | Print | Product List | Glossary On
Versions: 1 2 3 4 5 6 7 8 9 10 11 12 13 14 15 16 17 18 19 20 21 22 23 24 25 26 27 28 29 30 31 32 33 34 35 36 37 38 39 40 41 42 43 44 45 46 47 48 49 50
000
ASUS44 KLIX 212306
RWRLA
LOUISIANA WEATHER ROUNDUP
NATIONAL WEATHER SERVICE NEW ORLEANS LA
600 PM CDT SAT APR 21 2018

NOTE: "FAIR" INDICATES FEW OR NO CLOUDS BELOW 12,000 FEET WITH NO
      SIGNIFICANT WEATHER AND/OR OBSTRUCTIONS TO VISIBILITY.
      SKY/WX - SKY CONDITION AND SIGNIFICANT WEATHER.
      TMP - AIR TEMPERATURE.    DP   - DEWPOINT TEMPERATURE.
      RH  - RELATIVE HUMIDITY.  PRES - PRESSURE.
      HX  - HEAT INDEX.         WCI  - WIND CHILL INDEX.

*  THESE STATIONS ARE NOT NWS OR FAA STATIONS AND ARE NOT UNDER
   NWS QUALITY CONTROL.

LAZ040-048-061>063-065-066-069-220000-
SOUTHEAST LOUISIANA

CITY           SKY/WX    TMP DP  RH WIND       PRES   REMARKS
N.O. INTL ARPT PTSUNNY   75  66  73 SE15      30.04F
N.O. LAKEFRONT CLOUDY    72  66  81 E16       30.06S HAZE
N.O. DOWNTOWN* MOCLDY    74  65  73 SE9       30.06S
RESERVE*       FAIR      77  60  56 S9        30.04F
SLIDELL        CLOUDY    71  63  75 SE10G17   30.07R
BATON ROUGE    PTSUNNY   76  57  51 E12       30.03R
BOOTHVILLE     CLOUDY    72  66  81 E10       30.07S HAZE
BELLE CHASSE   PTSUNNY   73  68  84 SE10      30.05S
BOGALUSA*      FAIR      77  60  55 S10G18    30.07R
GALLIANO*      FAIR      73  64  74 E8        30.05S
NEW ROADS*     FAIR      76  56  50 E10       30.03S
GONZALES*      FAIR      74  59  58 E7        30.02F
HAMMOND*       FAIR      73  63  68 SE15      30.05S
HOUMA*         SUNNY     73  61  64 S8        30.04F
PORT FOURCHON* MOCLDY    72  68  88 E10G16    30.05F

$$

LAZ041-044-053-054-220000-
SOUTHWEST LOUISIANA

CITY           SKY/WX    TMP DP  RH WIND       PRES   REMARKS
LAKE CHARLES   CLOUDY    73  62  68 SE17      29.98F
LAFAYETTE      CLOUDY    74  61  63 SE5       30.01F
PATTERSON      FAIR      73  62  68 SE7       30.03S
SALT POINT       N/A    N/A N/A N/A SE7       30.01S
NEW IBERIA     FAIR      74  59  59 SE13      30.02S
CHENAULT AIRPK PTSUNNY   72  64  78 SE15      30.00F

$$

LAZ027-028-220000-
CENTRAL LOUISIANA

CITY           SKY/WX    TMP DP  RH WIND       PRES   REMARKS
FORT POLK      CLOUDY    73  62  67 SE13      29.96F
ALEXANDRIA INT CLOUDY    74  60  61 SE8       29.98F
ALEXANDRIA     PTSUNNY   75  59  57 SE6       30.00S

$$

LAZ001-002-220000-
NORTHWEST LOUISIANA

CITY           SKY/WX    TMP DP  RH WIND       PRES   REMARKS
SHREVEPORT     RAIN      64  61  90 SE7       29.93F FOG
BARKSDALE AFB  LGT RAIN  64  59  82 SE5       29.95F
DTN SHREVEPORT RAIN      65  60  84 SE5       29.95F

$$

LAZ014-016-220000-
NORTHEAST LOUISIANA

CITY           SKY/WX    TMP DP  RH WIND       PRES   REMARKS
MONROE         FAIR      70  50  49 CALM      30.04R
TALLULAH       FAIR      72  56  57 S6        30.03R

$$




USA.gov is the U.S. government's official web portal to all federal, state and local government web resources and services.